sat.trackr.live / text

‹ back to catalog

STARLINK-34593

NORAD 64758 · 2025-147D

PAYLOAD ACTIVE UNKNOWN

§ Identity

Operator
Country
US
Launch date
2025-07-08
Launch site
AFETR
Launch vehicle
Mass (kg)
RCS (m²)

Purposes: comms

External: N2YO · Heavens-Above · Gunter

§ Orbital elements

Epoch: 2026-09-20T17:05:53.462976Z

Period
93.85 min
Inclination
53.1587°
Eccentricity
0.0001610
Mean motion
15.34421665 rev/d
Perigee alt
461.5 km
Apogee alt
463.7 km
Semi-major
6,840.8 km
B*
8.4089e-4
RAAN
52.4191°
Arg perigee
95.0905°
Mean anomaly
265.0282°
Rev number
6,867

§ Raw data

STARLINK-345931 64758U 25147D   26263.71242434  .00028161  00000+0  84089-3 0  99942 64758  53.1587  52.4191 0001610  95.0905 265.0282 15.34421665 68678

JSON: /api/v1/satellites/64758 · /tle

For live sub-satellite position, see the globe view (requires WebGL).

§ Visibility from observer

Set your observer location to see the next 7 days of passes ≥ 10°. The values pass through the URL so the page stays shareable.

No JS? Fill the form by hand. The geolocation button needs JavaScript.